Regional Weather Roundup
Issued by NWS

Home | Current Version | Previous Version | Text Only | Print | Product List | Glossary Off
Versions: 1 2 3 4 5 6 7 8 9 10 11 12 13 14 15 16 17 18 19 20 21 22 23 24 25 26 27 28 29 30 31 32 33 34 35 36 37 38 39 40 41 42 43 44 45 46 47 48 49 50

000
ASUS43 KMKX 301711
RWRWI

WISCONSIN REGIONAL WEATHER ROUNDUP
NATIONAL WEATHER SERVICE MILWAUKEE/SULLIVAN WI
1200 PM CDT FRI SEP 30 2016

NOTE: "FAIR" INDICATES FEW OR NO CLOUDS BELOW 12,000 FEET WITH NO
SIGNIFICANT WEATHER AND/OR OBSTRUCTIONS TO VISIBILITY.

WIZ001-002-006>008-014>016-023>028-301800-
NORTHWEST WISCONSIN

CITY           SKY/WX    TMP DP  RH WIND       PRES   REMARKS
SUPERIOR ARPT  CLOUDY    55  51  86 NE8       30.43F
ASHLAND        CLOUDY    57  53  86 NE12      30.43F
HAYWARD        SUNNY     61  51  70 N12       30.39F
SIREN          SUNNY     61  51  69 NE7       30.38F
CUMBERLAND     SUNNY     59  50  72 N9        30.36F
RICE LAKE      SUNNY     64  51  64 N8        30.36F
CHETEK         NOT AVBL
LADYSMITH      SUNNY     65  50  58 NE12G17   30.36F
EAU CLAIRE     CLOUDY    65  51  60 NE9       30.32F
MENOMONIE      SUNNY     67  52  58 N6        30.33F
NEW RICHMOND   SUNNY     67  51  56 NE7       30.34F
OSCEOLA        SUNNY     63  54  70 N5        30.38F
$$

WIZ003>005-009-010-017-018-301800-
NORTH CENTRAL WISCONSIN

CITY           SKY/WX    TMP DP  RH WIND       PRES   REMARKS
MANITOWISH WTR NOT AVBL
ARBOR VITAE    SUNNY     63  50  63 NE9       30.36F
WOODRUFF       SUNNY     63  50  63 NE9       30.36F
RHINELANDER    SUNNY     64  49  57 NE12G18   30.36F
EAGLE RIVER    SUNNY     64  47  55 NE14      30.36F
LAND O LAKES   SUNNY     64  49  59 NE8G16    30.39F
PHILLIPS       SUNNY     62  51  67 NE9       30.36F
TOMAHAWK       SUNNY     65  49  56 NE8       30.35F
MEDFORD        PTSUNNY   65  49  55 NE14      30.32F HAZE
MERRILL        SUNNY     66  48  52 NE8       30.33F
$$

WIZ029-030-035-036-043>047-301800-
CENTRAL WISCONSIN

CITY           SKY/WX    TMP DP  RH WIND       PRES   REMARKS
WAUSAU         SUNNY     66  50  56 NE9G20    30.30F
MOSINEE        MOSUNNY   66  48  52 E16       30.31F
MARSHFIELD     SUNNY     67  49  52 NE15      30.30S
STEVENS POINT  PTSUNNY   63  51  67 E14G20    30.30F
WAUPACA        CLOUDY    62  57  83 NE9       30.29F
WAUTOMA        LGT RAIN  57  57 100 NE10      30.27F FOG
WISC RAPIDS    MOSUNNY   67  56  67 E10       30.30S
CAMP DOUGLAS   CLOUDY    61  55  82 NE6       30.28F
$$

WIZ011>013-019>022-031-037>040-048>050-301800-
NORTHEAST WISCONSIN

CITY           SKY/WX    TMP DP  RH WIND       PRES   REMARKS
ANTIGO         SUNNY     64  49  58 NE16      30.33S
SHAWANO        CLOUDY    64  56  76 NE15      30.31S
OCONTO         NOT AVBL
STURGEON BAY   NOT AVBL
GREEN BAY      CLOUDY    62  59  90 N18       30.28F
MANITOWOC      CLOUDY    62  56  80 MISG      30.27F
APPLETON       LGT RAIN  57  57 100 NE8       30.27S FOG
CLINTONVILLE   CLOUDY    61  54  77 NE12      30.30S
OSHKOSH        CLOUDY    60  58  92 NE12      30.25F
$$

WIZ032>034-041-042-053>061-301800-
SOUTHWEST WISCONSIN

CITY           SKY/WX    TMP DP  RH WIND       PRES   REMARKS
LA CROSSE      CLOUDY    67  55  65 E13G18    30.28F
SPARTA         CLOUDY    62  55  78 E6        30.29F
VIROQUA        CLOUDY    60  55  84 NE8       30.28F
BOSCOBEL       CLOUDY    63  55  75 VRB5      30.25F
PRAIRIE DU CHI CLOUDY    61  53  74 NE5       30.25S
PLATTEVILLE    CLOUDY    60  58  93 NE12G20   30.23F
$$

WIZ056-057-062-063-064-067-068-301800-
SOUTH CENTRAL WISCONSIN

CITY           SKY/WX    TMP DP  RH WIND       PRES   REMARKS
REEDSBURG      NOT AVBL
BARABOO/DELLS  CLOUDY    59  55  86 NE9       30.25F
LONE ROCK      CLOUDY    61  56  83 NE9       30.25S
MINERAL POINT  CLOUDY    61  57  88 NE9G16    30.23F
MADISON        CLOUDY    62  57  83 NE12      30.22S
MIDDLETON      CLOUDY    63  60  90 NE14G20   30.23S
WATERTOWN      CLOUDY    61  60  96 NE10      30.21S
MONROE         CLOUDY    61  55  82 NE14G22   30.20S
JANESVILLE     LGT RAIN  64  59  82 NE14G21   30.19S
$$

WIZ051-052-058>065-066-070>072-301800-
SOUTHEAST WISCONSIN

CITY           SKY/WX    TMP DP  RH WIND       PRES   REMARKS
MILWAUKEE      LGT RAIN  61  58  90 NE10      30.20F FOG
WAUKESHA       LGT RAIN  57  57 100 NE14G20   30.22S FOG
MILWAUKEE/TIMM LGT RAIN  59  55  88 NE13      30.22F FOG
RACINE         CLOUDY    62  60  93 NE12      30.20F
BURLINGTON     CLOUDY    59  57  94 NE14G21   30.19S FOG
KENOSHA        CLOUDY    62  60  93 NE12      30.18F
FOND DU LAC    CLOUDY    61  58  90 NE12      30.25F
SHEBOYGAN      LGT RAIN  61  57  87 NE14      30.25F
WEST BEND      CLOUDY    66  66 100 NE10      30.23S
JUNEAU         CLOUDY    61  57  86 NE14G20   30.24S
$$

LSZ147-162-301800-
LAKE SUPERIOR

STATION/POSITION TIME  TEMP    WIND        PRES    WAVE
                       AIR SEA DIR/SP/G            HT/PER
                 (UTC) (F)     (DEG/KT/KT) (MB)    (FT/S)
W MID LAKE BUOY  1650   55 55   60/ 12/ 14 1030.4F   2/ 4
DEVILS ISLAND    1600   53      30/ 11/ 12 1031.5F
SAXON HARBOR     1640   56     360/  4/  6 1029.8F
$$

LMZ867-665-643>646-301800-
LAKE MICHIGAN

STATION/POSITION TIME  TEMP    WIND        PRES    WAVE
                       AIR SEA DIR/SP/G            HT/PER
                 (UTC) (F)     (DEG/KT/KT) (MB)    (FT/S)
CHAMBERS ISLAND  1600   61      10/ 20/ 23 1026.4S
S GREEN BAY BUOY 1600   61 62   50/ 19/ 23 1025.4R
N MID LAKE BUOY  1650   62 65   70/ 16/ 19 1026.0R   4/ 5
NORTHPORT PIER   1600   62      40/ 12/ 16 1026.8S
SISTER BAY       1608   64      90/  8/ 16   N/A
KEWAUNEE LAKESHO 1600   62      50/  9/ 15 1024.9R
SHEBOYGAN LAKESH 1700   60      40/ 15/ 16 1023.9F
PORT WASHINGTON  1640   61      50/ 11/ 15 1024.4S
ATWATER BUOY     1600   57 53   20/ 10/ 14 1022.9F
MILWAUKEE LAKESH 1610   58      20/ 14/ 15   N/A
S MID LAKE BUOY  1650   63 67   70/ 19/ 27 1020.6F   5/ 5
KENOSHA   LAKESH 1600   61      50/ 18/ 20 1021.7S
$$

TC  - TEMPERATURE IN CELSIUS
VSB - VISIBILITY IN STATUTE MILES
WCI - WIND CHILL INDEX
HX  - HEAT INDEX





USA.gov is the U.S. government's official web portal to all federal, state and local government web resources and services.